Temp
27 27 27 28 27 28 29 28 29 28 28 28 27 26 26 26 26 26 25 24 24 24 25 26 26 25 25 24 24 25 24 24 24 24 24 24 24 24 25 25 25 25 25 25
27 29 30 29 28 28 28 28 28 30 28 28 26 27 26 27 27 27 26 26 25 24 23 24 25 25 25 25 24 25 25 25 24 24 24 24 24 25 25 25 25 25 25 25
28 30 29 31 30 29 29 27 30 29 27 28 27 27 27 27 26 25 27 26 26 25 24 23 24 24 24 24 25 25 25 25 25 24 24 23 24 24 25 25 25 25 25 25
28 29 30 30 30 29 31 31 29 27 26 26 27 25 26 26 26 26 24 24 24 25 24 23 24 23 23 24 25 25 25 25 25 24 24 24 24 24 25 25 25 25 25 25
29 29 30 30 30 28 30 28 28 28 25 26 27 25 25 24 25 26 26 25 23 24 24 23 23 24 24 24 24 24 25 25 25 25 24 24 24 24 25 25 25 25 25 25
28 27 29 30 28 28 27 26 22 20 21 24 24 23 23 22 22 25 25 23 21 22 22 23 24 24 24 24 24 24 24 24 24 24 24 24 24 24 24 24 24 25 25 25
27 28 28 30 30 28 25 23 23 24 23 23 21 21 25 23 23 24 24 22 22 22 22 22 22 23 24 24 24 24 24 24 24 24 24 24 24 23 23 24 24 24 25 25
24 27 29 29 29 28 25 24 22 25 22 23 22 21 21 23 23 22 23 22 22 22 21 22 22 22 22 23 23 23 24 24 24 24 24 24 24 24 23 23 23 24 24 24
24 27 28 29 28 28 26 24 22 18 19 21 22 24 25 23 23 22 22 23 21 21 21 22 22 22 22 23 24 24 23 23 23 23 23 23 22 22 22 22 22 22 22 23
24 26 27 28 27 25 27 22 24 19 22 22 22 23 22 23 20 21 21 21 20 21 21 21 21 21 20 20 21 21 22 22 22 22 22 22 22 22 22 22 22 22 22 22
22 23 26 25 23 24 23 23 17 17 17 20 20 21 21 20 21 20 19 19 18 18 18 19 19 19 19 20 21 21 22 22 22 23 23 23 23 23 23 22 22 21 21 21
22 19 22 25 24 22 23 23 19 20 22 17 18 19 19 19 20 20 20 19 19 19 18 19 19 19 19 20 20 21 22 22 21 21 21 21 22 22 22 22 22 22 21 21
22 19 21 23 23 23 23 23 17 16 16 19 19 19 19 18 18 18 18 18 18 18 17 17 16 16 17 17 18 18 19 19 20 20 21 21 22 22 22 22 21 22 22 22
19 15 20 21 22 21 24 23 21 19 19 17 17 18 19 18 17 16 16 17 17 16 15 15 15 15 15 15 15 15 16 17 18 18 19 19 19 20 21 21 22 21 20 21
19 19 20 20 21 23 21 22 22 24 19 22 18 17 17 17 16 16 16 16 15 15 14 14 13 13 13 13 13 13 14 15 15 16 17 17 19 19 19 19 19 20 20 20
16 19 21 21 20 22 21 20 20 19 18 17 18 17 17 15 15 15 14 14 14 13 13 13 12 12 11 11 11 11 11 12 12 12 13 14 15 16 18 18 18 17 18 19
18 16 17 21 18 21 20 18 19 18 18 18 18 16 16 16 15 14 13 13 12 12 12 11 11 10 10 10 10 9 10 10 10 10 11 11 12 13 14 16 16 16 15 16
17 15 14 17 19 20 18 18 18 17 17 16 16 16 17 17 14 12 11 11 11 11 10 10 9 9 9 10 10 10 11 10 10 10 10 11 11 11 12 12 12 14 14 14
16 16 15 17 15 18 19 18 20 19 18 18 16 16 17 15 13 13 11 11 10 10 10 9 9 9 9 9 9 9 8 9 9 9 9 9 9 9 10 10 10 11 12 13
17 15 17 16 19 17 18 21 19 19 18 17 16 16 16 14 14 14 10 10 9 9 9 8 8 8 9 9 9 8 8 8 8 8 8 8 8 8 8 8 8 9 10 11
17 16 17 17 18 18 18 21 19 19 18 16 15 15 14 13 13 11 10 9 9 9 9 9 9 9 10 9 8 7 8 8 8 8 8 8 8 8 8 9 9 8 9 9
19 18 17 15 17 20 19 20 19 17 14 15 14 13 13 12 11 11 10 9 9 9 10 10 9 10 11 10 8 8 9 9 8 8 8 8 8 8 9 9 9 9 9 9
19 17 17 17 16 15 16 18 16 13 14 13 13 12 11 11 10 10 9 9 9 9 10 10 9 9 11 11 10 9 10 9 8 8 8 8 9 9 9 9 9 9 9 9
18 14 15 16 17 17 17 16 14 14 14 12 12 11 9 10 10 9 8 8 8 10 10 10 9 9 10 12 12 11 10 9 8 8 8 9 9 9 9 9 9 9 9 9
16 16 14 15 15 16 15 15 15 13 12 12 10 10 9 9 9 8 8 8 9 10 10 10 9 8 9 12 11 11 11 10 8 8 9 9 9 9 10 10 10 10 9 10
15 15 16 16 15 16 16 16 13 12 12 11 10 10 10 9 8 9 8 10 10 9 10 9 9 8 11 11 11 12 13 11 10 9 10 9 9 9 10 11 11 11 10 11
Height
773 789 800 789 787 783 784 796 799 791 783 793 800 805 803 799 804 810 812 813 815 814 813 817 820 824 829 833 836 838 841 844 848 850 851 853 854 856 857 858 859 861 862 862
786 793 774 771 777 783 788 800 801 785 784 791 803 805 800 797 797 801 807 809 811 814 814 815 818 821 824 827 832 836 838 842 845 847 849 851 852 854 855 856 857 858 860 861
792 777 771 771 778 787 788 799 794 796 793 794 803 813 806 798 799 802 801 803 806 808 812 813 814 817 822 825 828 831 835 838 841 845 848 850 851 852 853 853 854 855 856 858
785 769 772 775 781 785 793 778 786 798 808 829 802 843 816 804 803 801 804 804 805 805 806 810 814 818 820 821 825 829 832 835 839 842 846 847 848 849 849 850 852 853 854 855
785 776 777 782 781 782 789 781 789 796 818 818 819 836 825 808 812 801 798 799 802 804 804 808 810 812 816 820 824 828 831 834 837 841 843 845 847 847 847 848 849 850 851 852
779 768 770 771 774 774 781 793 810 824 831 846 835 842 843 832 822 807 799 800 804 807 808 806 809 812 816 820 824 827 830 833 836 840 843 844 845 846 846 846 846 846 846 847
788 781 772 766 779 780 792 816 850 848 854 855 842 844 827 819 806 796 796 801 805 807 814 814 814 815 818 821 822 826 828 832 835 837 839 840 841 843 843 844 843 842 841 841
814 814 779 770 778 793 803 812 847 853 865 853 835 853 840 811 803 799 797 801 804 811 815 820 820 816 819 819 822 826 827 830 831 834 836 836 837 837 838 838 838 836 835 834
810 803 777 772 773 781 802 820 816 854 858 855 844 830 818 816 813 810 809 807 811 812 814 820 823 820 823 822 825 825 828 829 831 832 832 833 833 833 833 834 832 830 827 826
794 809 786 779 778 788 790 807 828 846 857 862 850 845 846 831 832 823 821 820 819 816 821 825 826 827 830 830 830 831 831 831 832 832 832 832 832 832 831 828 827 822 819 819
789 802 799 792 807 808 810 816 838 847 855 861 872 858 839 840 833 831 829 827 826 827 827 829 830 832 833 837 836 836 835 834 833 833 833 832 832 831 828 826 823 819 815 814
790 812 825 810 799 801 801 813 828 843 847 863 859 863 841 838 835 830 831 831 832 832 833 834 836 837 839 837 837 836 834 832 833 831 832 831 830 828 826 823 820 816 813 810
785 818 837 827 816 804 812 811 829 839 844 852 857 865 841 841 840 838 837 837 836 836 836 837 836 838 838 839 839 837 835 833 832 831 829 826 825 823 820 817 815 813 809 806
782 826 821 837 825 820 815 815 818 828 844 855 855 853 847 846 844 844 842 841 841 841 841 840 839 840 839 837 836 834 832 832 829 827 824 821 819 818 816 813 810 807 804 802
792 822 819 820 816 812 819 819 815 814 831 831 845 850 850 847 846 845 844 842 842 843 842 843 843 841 838 835 833 832 830 828 825 822 816 813 812 810 809 807 804 801 799 796
802 825 816 823 820 815 825 825 823 827 835 840 840 850 844 847 847 849 849 849 851 851 852 851 849 848 847 846 843 840 836 831 827 822 819 815 811 806 802 798 796 794 791 788
809 825 832 832 830 821 835 835 831 833 832 832 842 844 844 848 849 851 852 852 853 853 852 852 851 849 845 843 841 837 834 830 825 820 814 810 805 800 795 792 788 785 782 781
814 828 838 842 835 846 841 829 827 835 836 836 838 841 842 844 847 851 853 853 852 853 854 854 853 852 850 847 843 839 833 827 820 813 807 802 798 793 789 785 782 778 775 771
805 821 843 844 862 849 839 832 827 831 840 834 839 841 841 845 850 850 852 852 851 853 854 854 853 852 848 844 840 836 831 825 819 811 803 798 793 786 781 776 772 769 767 762
808 814 825 846 844 858 835 818 816 821 845 830 834 838 840 845 856 849 849 851 853 854 854 853 851 847 843 838 834 829 824 818 812 805 799 793 787 780 773 769 763 760 757 751
824 829 834 840 841 837 822 814 817 841 843 826 829 834 840 846 845 844 846 849 850 850 850 849 847 843 838 833 828 823 818 811 804 798 791 785 778 771 765 759 754 749 745 742
818 829 837 846 843 836 814 817 829 824 821 821 827 832 837 839 840 841 843 845 846 846 845 845 842 837 834 830 825 819 812 804 798 791 785 775 767 760 752 746 741 738 735 731
819 820 827 829 832 820 815 813 813 816 819 823 827 831 835 839 840 840 841 842 842 842 841 840 838 835 830 826 821 814 806 800 793 785 776 766 756 747 740 733 726 724 723 719
813 817 824 823 820 817 815 815 815 815 816 821 824 829 834 835 836 838 839 840 839 838 837 836 833 830 825 821 817 811 803 797 789 780 769 756 744 734 726 719 713 708 707 706
814 813 824 826 821 818 814 813 812 815 817 821 825 827 830 833 834 835 837 837 836 834 833 831 829 827 820 816 811 803 797 790 784 775 763 748 736 723 712 702 695 692 691 692
810 814 820 823 809 810 807 804 808 813 815 818 822 827 828 829 830 833 833 832 833 832 830 828 824 821 813 808 802 795 789 784 777 770 758 746 734 721 707 692 679 678 677 677
Wind_Speed
3 4 4 7 6 5 4 3 3 4 7 4 6 5 12 13 9 10 9 9 9 11 14 24 26 28 29 28 28 29 30 29 25 24 22 20 18 15 17 18 19 17 16 16
5 3 3 6 4 6 4 3 5 2 5 4 5 6 13 15 15 13 13 12 10 5 7 16 23 27 31 34 33 32 31 31 28 27 24 22 20 18 16 17 19 20 21 19
4 4 0 4 4 5 2 6 4 3 5 3 5 2 9 11 6 7 10 7 6 9 9 9 19 26 27 30 35 35 34 32 31 27 26 23 19 19 19 19 19 18 19 20
4 4 2 5 2 3 3 2 5 8 4 3 2 4 3 10 15 14 9 9 7 7 7 7 13 18 24 32 32 34 34 33 32 29 28 27 24 22 26 25 23 20 19 19
5 5 3 4 4 5 3 4 4 4 5 4 4 3 5 3 11 15 14 12 6 6 8 9 16 23 22 24 28 30 30 32 31 30 29 27 26 26 23 23 22 20 20 20
3 4 1 1 3 4 5 6 8 5 3 2 3 4 3 3 5 7 6 8 8 8 6 6 9 17 19 17 20 23 26 26 26 25 25 27 28 28 25 23 24 25 26 25
4 4 4 1 3 4 7 6 3 3 3 5 4 4 1 9 9 12 11 11 10 7 5 5 8 11 12 11 15 16 18 20 22 24 25 27 30 29 28 28 28 28 28 30
4 3 2 4 3 5 3 6 6 5 4 3 4 4 6 5 8 9 10 11 10 8 6 5 5 10 9 12 9 9 8 11 13 17 20 22 25 29 30 32 32 34 36 36
4 3 3 4 2 3 3 2 4 7 3 3 2 2 3 10 10 9 10 10 6 3 7 2 6 13 13 14 11 11 9 4 1 5 10 14 18 20 21 22 24 29 35 38
6 4 2 2 2 6 3 5 3 3 4 2 3 3 4 8 8 8 8 6 5 7 5 1 8 16 14 14 13 12 9 6 4 4 6 7 8 12 16 19 24 27 31 35
4 3 3 4 6 1 4 3 7 6 3 5 3 2 5 2 3 7 7 7 7 9 8 7 12 15 14 10 9 6 6 6 6 6 8 9 10 12 14 15 19 21 23 30
1 5 4 2 2 2 2 3 4 5 3 1 3 2 3 4 5 8 10 9 9 11 10 12 14 15 12 14 14 13 13 14 13 12 12 12 13 14 15 16 19 19 20 19
6 3 4 6 6 4 5 3 4 4 3 2 5 4 2 5 7 8 11 10 10 11 12 10 17 17 20 21 21 21 20 20 21 20 20 21 21 24 25 25 22 21 23 22
9 4 5 6 5 3 2 4 3 4 3 6 4 8 4 4 7 6 8 8 8 8 9 10 12 16 19 22 24 27 28 28 29 30 29 29 29 27 26 26 27 27 23 21
5 4 4 4 3 2 2 2 5 2 4 2 7 5 6 5 6 4 5 8 11 12 13 12 12 19 24 28 33 35 36 37 36 37 39 39 40 39 34 28 26 25 27 26
4 2 3 3 5 4 3 7 5 5 5 7 14 6 4 5 5 5 6 6 6 6 7 8 13 16 17 19 21 26 28 31 35 34 31 32 33 37 38 37 31 26 27 28
4 6 3 2 4 4 3 5 2 3 4 8 10 5 5 4 5 4 4 5 5 6 8 10 14 19 24 28 30 29 28 29 32 30 30 29 28 30 32 32 32 31 30 33
5 4 2 3 3 2 5 3 8 9 6 6 9 7 7 5 3 5 3 3 3 5 6 9 14 18 20 19 24 27 31 35 35 35 33 32 29 29 28 27 31 36 36 33
4 5 4 4 3 2 3 5 2 4 1 1 7 6 5 5 5 4 4 1 2 4 9 12 13 16 19 21 23 25 27 29 33 35 34 32 30 32 32 33 31 32 35 36
6 7 5 2 4 6 6 4 5 4 2 7 6 6 5 4 1 4 5 3 7 11 11 12 11 15 19 25 25 23 24 26 28 32 35 36 33 33 32 32 34 33 33 36
3 3 4 2 2 4 5 3 4 4 6 7 8 7 7 5 4 4 3 4 5 4 6 10 15 21 26 29 27 23 25 27 31 32 33 35 37 38 35 35 36 34 34 33
4 5 2 2 3 3 5 4 7 6 1 7 6 6 6 4 3 3 3 4 4 7 11 14 19 24 26 28 26 23 26 31 33 33 34 36 38 40 40 38 37 35 32 32
1 4 5 5 5 3 3 3 1 4 5 6 7 5 6 6 6 4 4 5 7 11 15 16 18 22 25 27 27 24 31 33 33 34 37 38 40 39 40 40 39 34 32 32
2 2 4 3 2 3 4 1 3 4 5 6 6 7 8 7 5 6 4 8 11 14 16 17 21 24 27 25 24 27 31 33 32 34 37 39 36 37 36 37 36 33 31 31
4 3 5 1 3 4 7 6 5 4 5 5 6 8 8 6 6 6 4 9 14 17 19 21 24 24 29 27 30 27 29 29 29 33 37 36 36 33 35 36 35 33 34 35
4 6 4 5 7 5 5 3 8 8 8 8 8 5 9 12 7 7 10 16 18 21 22 25 27 23 31 28 28 29 28 26 27 30 35 40 36 35 34 33 24 29 38 37
Wind_Direction
24 65 212 222 209 201 168 175 217 220 166 131 181 152 180 181 176 185 189 187 196 209 207 200 204 207 207 207 206 204 207 210 212 213 222 233 239 238 232 238 237 245 254 260
16 242 220 268 219 206 255 177 247 313 139 129 168 200 185 190 198 190 188 197 199 166 173 191 195 195 201 207 210 210 211 215 218 221 224 223 222 227 239 249 248 248 251 262
177 226 279 230 81 117 107 162 166 162 109 57 110 313 188 207 190 202 205 194 185 185 178 185 185 189 192 200 211 213 217 219 218 224 223 221 230 235 239 245 249 245 248 257
226 276 144 126 78 127 104 139 110 125 98 183 69 263 255 206 202 200 202 191 197 188 178 176 182 183 193 208 214 217 218 222 223 221 222 224 231 236 242 246 250 253 254 260
256 349 40 131 172 166 179 66 63 96 96 93 358 80 306 156 208 211 198 201 173 170 162 170 184 191 196 205 216 221 222 225 226 228 229 236 242 248 254 256 249 251 256 264
256 295 3 114 69 67 137 63 40 58 88 48 338 138 304 347 299 260 194 177 146 136 169 179 184 183 190 202 217 221 225 228 232 237 241 245 252 257 261 262 258 260 263 265
354 318 310 118 83 37 70 60 359 355 13 205 307 72 45 318 318 242 177 146 139 135 52 81 91 143 196 198 209 223 229 241 246 248 252 253 254 259 265 273 277 276 275 271
138 336 357 349 104 162 63 143 151 209 190 217 356 4 311 346 34 50 103 116 118 99 66 30 60 106 134 159 175 192 212 234 243 253 254 259 262 261 263 265 268 271 274 277
139 266 313 54 61 99 168 83 166 106 4 74 251 118 91 25 43 52 76 89 98 178 93 124 74 93 108 117 131 144 150 129 238 274 270 268 270 271 274 284 284 282 276 274
199 100 0 335 77 35 114 145 68 16 131 133 21 66 344 356 12 38 42 55 40 47 54 141 105 99 81 76 78 83 83 82 45 13 358 345 319 304 298 300 309 295 284 268
128 98 270 46 22 230 1 38 53 109 102 144 130 262 1 41 31 77 76 74 68 63 51 64 79 78 70 53 61 47 43 44 33 8 349 340 335 335 332 325 323 324 306 284
131 120 81 125 321 270 99 108 127 119 207 72 125 265 357 43 22 75 66 70 66 67 64 63 51 59 49 28 13 1 355 353 341 336 323 321 320 322 326 331 332 338 327 322
183 24 72 356 352 5 43 37 109 105 100 189 128 222 98 55 51 45 78 64 58 52 46 36 35 25 15 6 1 358 353 342 336 318 306 308 309 314 316 319 321 325 328 329
86 85 143 180 183 173 8 357 85 108 109 165 190 150 150 90 78 47 60 57 55 45 35 24 17 9 2 358 355 349 343 336 330 325 319 309 304 296 297 301 308 313 317 317
89 97 86 70 26 122 91 349 338 84 141 138 169 122 170 154 122 68 60 42 33 21 17 12 3 1 358 352 345 340 333 329 328 323 318 313 308 307 299 293 296 299 303 308
20 141 122 56 6 24 74 12 50 60 110 69 117 108 149 114 90 72 60 51 37 18 3 354 352 348 344 338 332 327 323 320 321 318 312 310 307 305 299 296 296 295 296 299
75 128 97 192 349 34 8 341 360 65 33 144 149 185 142 141 137 144 101 58 29 7 355 347 341 337 333 331 328 322 315 314 313 309 308 308 309 306 303 298 295 297 297 297
113 90 71 136 39 160 283 323 107 104 57 97 107 124 141 151 124 130 120 108 30 351 332 325 316 312 317 325 323 325 322 314 311 308 304 302 304 301 300 295 294 293 295 292
68 116 72 111 71 146 340 255 199 120 260 202 137 152 148 110 134 216 169 135 351 298 294 291 289 290 299 300 316 312 304 301 305 304 304 304 303 299 297 293 289 287 290 286
61 72 104 109 128 190 234 213 144 132 304 195 171 167 150 90 121 257 168 183 224 239 251 263 292 308 315 320 321 304 306 306 300 293 299 301 297 292 289 288 286 283 281 278
32 21 114 128 141 279 243 163 145 97 238 167 168 179 162 179 198 165 199 233 219 245 303 321 328 327 328 329 324 307 311 307 307 300 293 290 293 291 285 284 281 277 274 274
156 131 141 91 98 244 180 98 159 208 24 167 163 165 181 222 239 245 264 254 266 307 322 326 324 324 333 341 327 311 310 312 312 307 298 291 285 283 282 280 279 274 271 270
64 171 179 165 212 259 280 215 132 159 146 171 155 163 180 199 223 209 249 268 285 298 305 309 308 314 323 337 338 312 319 322 314 308 301 297 292 283 278 276 274 268 264 261
354 154 92 82 273 244 257 218 180 172 162 156 163 166 172 198 214 224 236 263 275 290 296 310 311 308 310 316 317 319 315 318 313 311 307 305 301 294 283 273 267 261 254 255
199 127 140 337 279 315 273 233 191 167 132 129 140 173 192 195 224 215 230 254 273 285 298 305 301 298 299 303 294 311 330 328 309 314 322 326 319 308 293 280 261 250 247 244
182 167 152 217 206 170 230 226 167 171 181 177 162 169 203 208 224 230 247 257 268 281 295 299 300 294 303 296 286 286 304 318 320 322 328 334 333 337 333 329 280 257 252 250